Location: Anikvere
(58.6500°N, 26.0333°E)
Time: 04:48:34
(UTC+00:00)

Daily predictions for brighter satellites

Satellite Brightness Start Highest point End
(mag) Time Altitude Azimuth Time Altitude Azimuth Time Altitude Azimuth
Cosmos 2263 Rocket 3.9 02:00:41 26° ESE 02:01:12 27° ESE 02:05:47 10° NE
Cosmos 1833 Rocket 4.3 02:12:13 28° NNE 02:12:13 28° NNE 02:16:45 10° E
Cosmos 2297 Rocket 3.5 02:28:38 32° NNE 02:28:38 32° NNE 02:31:46 10° NE
IDEFIX/ARIANE 42P 4.4 02:25:41 10° NNE 02:27:32 23° NNE 02:27:32 23° NNE
Cosmos 2227 Rocket 3.4 02:33:48 34° NNE 02:33:48 34° NNE 02:37:07 10° NE
MSX 4.2 02:29:12 10° NNE 02:33:56 58° NE 02:33:56 58° NE
COSMOS 2406 4.1 02:36:05 42° NNE 02:36:27 43° NE 02:41:51 10° ESE
NOSS 3-3 (A) 4.2 02:37:09 83° NW 02:37:29 87° NNE 02:45:29 10° ESE
NOSS 3-3 (C) 4.2 02:37:16 83° NW 02:37:35 87° NNE 02:45:36 10° ESE
ATLAS 5 CENTAUR R/B 2.7 02:52:16 46° NE 02:52:16 46° NE 02:56:17 10° ENE
Cosmos 2056 Rocket 4.3 02:53:50 44° NNE 02:53:50 44° NNE 02:57:21 10° NNE
Okean O Rocket 4.3 02:50:17 10° NE 02:53:22 18° E 02:56:27 10° SE
ALOS 4.4 02:50:16 10° NNE 02:54:13 26° E 02:58:08 10° SSE
Cosmos 2219 4.4 02:56:50 31° N 02:56:50 31° N 03:00:26 10° NE
Cosmos 2026 Rocket 3.8 02:56:02 83° SSW 02:56:02 83° SSW 03:02:05 10° S
Cosmos 2082 Rocket 3.4 02:58:10 30° N 02:59:25 33° NNE 03:04:30 10° E
ATLAS CENTAUR R/B 2.7 03:06:22 35° SE 03:06:22 35° SE 03:08:47 10° SE
Cosmos 1420 Rocket 4.1 03:05:09 67° SE 03:05:27 69° ESE 03:10:38 10° NE
PAYLOAD A 4.2 03:03:10 10° NNE 03:07:48 65° N 03:07:48 65° N
ADEOS 4.5 03:09:05 10° NNE 03:12:15 36° N 03:12:15 36° N
Cosmos 1340 4.3 03:19:17 28° NE 03:19:17 28° NE 03:21:20 10° NNE
CZ-4B R/B 4.5 03:15:32 10° NNE 03:17:32 28° NNE 03:17:32 28° NNE
Cosmos 2082 4.3 03:23:35 42° NNW 03:23:35 42° NNW 03:28:15 10° NE
Cosmos 967 Rocket 4.4 03:26:26 58° WNW 03:27:46 75° SW 03:34:15 10° SE
GEOS 3 Rocket 4.3 03:24:04 10° SSE 03:28:00 39° SSW 03:28:00 39° SSW
Meteor 1-25 Rocket 4.1 03:27:04 27° SSW 03:30:16 82° WNW 03:36:05 10° NNE
Cosmos 1634 Rocket 3.9 03:24:23 10° SSW 03:30:36 88° WNW 03:36:49 10° NNE
Meteor 2-4 Rocket 3.5 03:33:55 44° NNW 03:35:44 78° WSW 03:41:08 10° S
Cosmos 724 4.2 03:35:01 58° W 03:36:07 73° NNW 03:42:01 10° NE
CZ-2C R/B 3.2 03:32:46 10° NNE 03:35:32 35° N 03:35:32 35° N
Cosmos 1452 Rocket 3.4 03:36:16 40° SSW 03:38:16 90° WNW 03:43:37 10° NNE
Cosmos 2034 Rocket 4.2 03:38:53 47° WNW 03:38:53 47° WNW 03:44:47 10° N
Cosmos 1346 Rocket 2.8 03:39:35 74° E 03:39:35 74° E 03:43:26 10° NNE
USA 116 4.2 03:34:51 10° SSE 03:39:47 78° WSW 03:41:35 42° NNW
SL-24 R/B 4.2 03:37:16 10° SSE 03:41:28 74° ENE 03:42:59 40° N
ADEOS II 4.3 03:40:34 10° N 03:41:13 12° N 03:41:13 12° N
Cosmos 968 Rocket 3.8 03:41:56 32° NNW 03:44:14 62° NE 03:49:19 10° SE
Cosmos 2263 Rocket 2.0 03:42:26 39° SW 03:44:36 84° NW 03:50:13 10° NE
Cosmos 1818 4.2 03:43:27 39° NNW 03:44:48 47° NNE 03:50:05 10° E
Meteor 2-13 Rocket 4.3 03:40:17 14° NNW 03:45:36 75° W 03:51:44 10° S
DMSP B5D1-3 4.4 03:42:02 10° SSE 03:47:13 85° WSW 03:50:02 28° NNW
Cosmos 1503 Rocket 4.4 03:46:10 29° NNW 03:48:51 62° NE 03:54:09 10° SE
Meteor 1-19 Rocket 4.4 03:49:57 45° WSW 03:49:57 45° WSW 03:54:47 10° SSW
Cosmos 839 Rocket 4.1 03:47:22 38° NW 03:50:05 82° NE 03:57:21 10° SE
Meteor 1-14 Rocket 4.2 03:46:11 10° SSW 03:52:11 79° WNW 03:58:13 10° NNE
Cosmos 1655 Rocket 3.9 03:46:18 10° NNW 03:52:31 72° W 03:58:42 10° S
FENGYUN 3A 4.0 03:47:26 10° NNE 03:52:50 66° ESE 03:58:10 10° S
Helios 1A Rocket 4.1 03:49:20 10° NNE 03:53:13 43° E 03:57:04 10° S
Cosmos 2084 3.8 03:54:15 48° NNW 03:54:51 52° N 03:59:07 10° E
METEOR-M 4.4 03:50:25 10° NNE 03:55:48 70° ESE 04:01:09 10° S
Cosmos 1607 4.2 03:54:17 40° WNW 03:55:59 51° NNW 04:02:04 10° ENE
Cosmos 1833 Rocket 3.0 03:53:55 29° NNW 03:56:51 63° NE 04:02:28 10° SE
CZ-4B DEB 4.4 03:54:41 10° NNE 04:00:15 76° ESE 04:05:48 10° SSW
Cosmos 2142 Rocket 4.4 03:54:37 10° SSW 04:01:01 74° WNW 04:07:25 10° N
Cosmos 1354 Rocket 4.3 03:59:09 26° NNW 04:02:12 69° NE 04:07:30 10° SE
Cosmos 389 Rocket 4.4 04:00:36 15° N 04:02:56 28° ENE 04:05:59 10° ESE
Meteor 1-20 Rocket 4.4 04:03:02 16° SW 04:07:38 51° WNW 04:13:18 10° N
COSMO-SKYMED 1 4.4 04:04:13 10° SSW 04:05:34 18° SSW 04:05:34 18° SSW
IDEFIX/ARIANE 42P 4.0 04:05:52 10° N 04:08:20 21° NNW 04:08:20 21° NNW
Cosmos 2297 Rocket 3.3 04:10:27 26° NW 04:11:22 27° NNW 04:16:11 10° NE
Cosmos 405 4.1 04:13:38 30° SSW 04:13:38 30° SSW 04:15:45 10° S
SJ 16-02 3.7 04:11:24 10° N 04:13:38 14° NNE 04:15:59 10° ENE
Cosmos 1666 4.2 04:10:57 10° SSE 04:14:28 38° E 04:18:00 10° NNE
Cosmos 1844 Rocket 3.5 04:10:09 10° SSW 04:15:33 53° ESE 04:20:59 10° NE
MSX 4.5 04:11:20 10° N 04:16:24 33° NW 04:16:59 32° WNW
Cosmos 2227 Rocket 3.3 04:15:38 26° NW 04:16:44 27° NNW 04:21:33 10° NE
Cosmos 1331 Rocket 4.2 04:11:54 10° SSW 04:17:03 72° ESE 04:22:16 10° NNE
ADEOS Rocket 3.0 04:10:47 10° SSE 04:17:18 85° ENE 04:23:13 10° NNW
Cosmos 1733 Rocket 2.9 04:14:15 10° SSW 04:18:36 89° WNW 04:22:59 10° NNE
H-2A R/B 4.1 04:15:18 10° N 04:17:04 20° NNW 04:17:04 20° NNW
Cosmos 2227 4.4 04:17:21 30° W 04:19:54 51° NW 04:25:33 10° NE
Cosmos 332 Rocket 4.1 04:15:27 10° SSW 04:20:20 70° ESE 04:25:13 10° NNE
Cosmos 1484 Rocket 3.0 04:16:44 10° N 04:20:33 47° WNW 04:20:50 46° W
COSMOS 2406 3.2 04:18:09 29° NW 04:21:08 67° WSW 04:26:45 10° SSE
CZ-4B R/B 3.4 04:15:34 10° NNE 04:21:13 76° ESE 04:26:53 10° SSW
Cosmos 2266 Rocket 3.9 04:19:45 10° NNW 04:25:55 62° W 04:31:56 10° S
Cosmos 44 3.2 04:23:58 12° SW 04:28:18 75° SE 04:32:43 10° NE
Okean O Rocket 1.5 04:25:54 10° NNE 04:30:20 86° WNW 04:34:46 10° SSW
ALOS 2.2 04:27:23 10° NNE 04:32:02 64° WNW 04:36:40 10° SSW
Cosmos 1869 Rocket 4.3 04:33:51 30° NW 04:33:51 30° NW 04:37:19 10° N
Cosmos 1110 Rocket 3.9 04:28:45 10° SSW 04:33:56 85° WNW 04:39:10 10° NNE
Cosmos 2056 Rocket 4.4 04:34:12 26° NW 04:34:59 28° NW 04:39:27 10° NNE
Meteor 2-19 Rocket 4.4 04:29:02 10° NNW 04:35:14 79° W 04:41:23 10° S
ATLAS 5 CENTAUR R/B 2.4 04:33:48 28° WNW 04:36:13 52° N 04:41:48 10° E
CZ-2C R/B 3.9 04:32:37 10° ESE 04:37:21 36° ENE 04:42:04 10° N
Cosmos 371 Rocket 3.2 04:35:04 10° SW 04:39:57 78° WNW 04:44:53 10° NNE
USA 234 3.9 04:33:56 10° ENE 04:40:22 56° SSE 04:46:47 10° SW
SJ-7 4.3 04:36:42 10° NNE 04:40:45 87° WNW 04:44:45 10° SSW
Cosmos 1674 Rocket 4.1 04:39:55 28° NW 04:41:23 36° W 04:45:20 10° SSW
Cosmos 2180 Rocket 4.5 04:36:25 10° SSW 04:42:31 61° WNW 04:48:42 10° N
IRIDIUM 104 4.3 04:37:43 10° N 04:42:56 68° W 04:48:06 10° S
ATLAS CENTAUR R/B 2.7 04:42:35 22° WSW 04:43:07 23° WSW 04:46:18 10° S
H-2A R/B 3.2 04:39:46 10° NNE 04:43:31 61° ESE 04:47:15 10° S
PSLV R/B 4.5 04:39:50 10° N 04:43:36 35° WNW 04:47:23 10° SW
SJ-12 4.3 04:40:09 10° N 04:44:03 41° WNW 04:47:55 10° SW
Cosmos 1975 Rocket 3.1 04:39:43 10° NNW 04:44:12 88° ENE 04:48:41 10° SSE
Cosmos 2082 Rocket 2.2 04:40:01 19° NW 04:44:16 83° NE 04:49:55 10° SE
CZ-4 R/B 4.0 04:41:48 10° NE 04:44:51 21° E 04:47:56 10° SE
Cosmos 1486 Rocket 4.5 04:44:16 23° NW 04:47:05 41° WSW 04:52:00 10° S
Meteor 1-23 Rocket 4.4 04:45:25 10° NNW 04:51:04 54° W 04:56:39 10° S
IRIDIUM 114 4.3 04:46:54 10° N 04:52:03 59° W 04:57:10 10° SSW
Cosmos 1340 3.8 04:54:08 23° NW 04:54:08 23° NW 04:56:42 10° N
Cosmos 1743 3.9 04:49:55 10° SSE 04:53:33 44° E 04:57:13 10° NNE
CZ-4B R/B 4.3 04:51:16 10° N 04:53:39 21° NW 04:53:39 21° NW
Cosmos 1782 Rocket 4.2 04:50:28 10° S 04:54:47 58° E 04:59:07 10° NNE
Okean-O 3.8 04:52:20 10° NNE 04:56:38 46° E 05:00:54 10° S
Envisat 4.1 04:51:51 10° NNE 04:56:47 47° E 05:01:42 10° S
Cosmos 1378 Rocket 4.2 04:55:00 18° NW 04:57:40 35° W 05:01:41 10° SSW
Cosmos 1536 2.8 04:56:34 10° SSW 05:00:36 61° WNW 05:04:37 10° N
PAYLOAD B 4.3 04:55:34 10° NNE 05:00:57 54° WNW 05:06:19 10° SW
IRIDIUM 103 4.5 04:56:08 10° NNW 05:01:12 51° W 05:06:14 10° SSW
YAOGAN 6 4.2 04:57:53 10° NNE 05:01:24 39° E 05:04:54 10° SSE
Cosmos 2279 Rocket 4.3 04:55:59 10° SW 05:01:50 41° WNW 05:07:45 10° N
SL-27 R/B 4.4 04:59:00 10° NNW 05:01:58 23° NE 05:04:56 10° E
USA 81 4.2 04:57:56 10° NNW 05:03:02 50° W 05:08:06 10° SSW
Cosmos 1500 3.7 05:02:41 10° SW 05:06:15 36° WNW 05:09:49 10° N
Okean 2 Rocket 4.5 05:06:51 10° SSE 05:11:00 42° E 05:15:12 10° NNE
Cosmos 1842 3.4 05:08:12 10° NNW 05:12:10 77° ENE 05:16:08 10° SSE
Iridium 4 Rocket 3.8 05:07:47 10° N 05:12:15 54° E 05:16:24 10° SSE
Cosmos 2285 Rocket 4.0 05:06:15 11° NNW 05:12:28 81° WSW 05:18:46 10° SSE
Meteor 1-11 Rocket 3.9 05:08:50 10° SW 05:14:36 58° WNW 05:20:30 10° NNE
CZ-2C R/B 3.8 05:12:03 10° N 05:14:46 16° NW 05:14:54 16° NW
Meteor 2-21 4.5 05:09:18 10° NNW 05:15:27 89° WSW 05:21:37 10° S
Cosmos 1346 Rocket 4.1 05:15:13 17° WNW 05:16:22 19° NW 05:19:17 10° N
Sich 1 Rocket 3.9 05:12:34 10° S 05:17:02 71° E 05:21:29 10° NNE
Mayak 1.4 05:17:18 10° ENE 05:18:38 11° NE 05:19:58 10° NNE
Cosmos 1452 Rocket 4.4 05:16:40 11° W 05:21:06 29° NW 05:25:43 10° NNE
Meteor 1-4 Rocket 2.5 05:18:59 10° NNW 05:22:45 82° WSW 05:26:27 10° S
Cosmos 44 Rocket 3.8 05:20:07 10° SW 05:24:53 62° SE 05:29:36 10° NE
Cosmos 968 Rocket 4.3 05:21:58 14° NW 05:25:48 32° WSW 05:30:18 10° SSW
Helios 1A Rocket 3.6 05:24:42 10° N 05:28:20 32° WNW 05:31:56 10° WSW
NOAA 12 4.2 05:23:06 10° NNE 05:28:24 81° ESE 05:33:38 10° SSW
Cosmos 1302 Rocket 4.0 05:23:36 10° SW 05:28:53 68° NW 05:34:12 10° NNE
Cosmos 1818 3.6 05:24:05 14° NW 05:28:54 88° NE 05:34:22 10° SE
Cosmos 2278 Rocket 3.2 05:23:38 10° S 05:29:07 51° ESE 05:34:36 10° NE
Cosmos 2263 Rocket 2.9 05:24:14 10° W 05:29:15 33° NNW 05:34:19 10° NE
Okean 2 3.7 05:27:29 10° NNW 05:31:26 46° W 05:35:21 10° SSW
AQUARIUS 4.1 05:28:02 10° NNE 05:32:31 65° WNW 05:36:58 10° SSW
FENGYUN 3A 4.3 05:28:07 10° N 05:32:54 33° NW 05:37:40 10° WSW
CZ-2C R/B 4.4 05:29:01 10° SSW 05:33:27 37° W 05:37:56 10° NNW
Cosmos 1553 Rocket 4.2 05:27:17 10° S 05:33:27 78° E 05:39:47 10° NNE
NOAA 6 4.5 05:28:52 10° N 05:33:36 38° WNW 05:38:18 10° SW
Cosmos 304 Rocket 3.8 05:28:53 10° SW 05:33:38 61° NW 05:38:25 10° NNE
Cosmos 2084 3.5 05:30:48 14° WNW 05:34:38 79° SSW 05:38:56 10° SE
Cosmos 2098 Rocket 3.2 05:32:32 10° NNW 05:36:29 59° W 05:41:29 10° S
Cosmos 1908 Rocket 3.9 05:33:07 10° SW 05:37:24 44° WNW 05:41:42 10° N
Cosmos 1441 Rocket 3.2 05:33:48 10° SSW 05:37:44 68° WNW 05:41:39 10° NNE
Cosmos 389 Rocket 3.1 05:34:30 10° NNW 05:37:45 36° W 05:40:59 10° SSW
Cosmos 1378 3.5 05:34:14 10° NNW 05:37:50 45° W 05:41:26 10° SSW
Cosmos 1536 Rocket 3.6 05:33:24 10° NNW 05:37:52 86° WSW 05:42:15 10° S
NOSS 3-2 (A) 3.8 05:34:13 10° SW 05:40:18 80° SE 05:47:23 10° ENE
Cosmos 1833 Rocket 3.3 05:35:37 11° NW 05:40:36 39° WSW 05:45:47 10° S
SAR-Lupe-2 4.5 05:38:19 10° SSW 05:41:32 31° W 05:44:48 10° NNW
Cosmos 1607 4.3 05:38:25 11° WNW 05:44:12 52° NNE 05:50:18 10° E
Cosmos 1300 Rocket 4.2 05:40:46 10° S 05:45:04 61° E 05:49:23 10° NNE
Cosmos 1666 3.5 05:46:45 10° SW 05:50:09 30° WNW 05:53:33 10° N
CENTAUR R/B 3.3 05:45:22 10° SW 05:51:37 63° SE 05:59:00 10° ENE
USA 238 DEB 3.8 05:46:09 10° WSW 05:52:58 89° NNW 06:00:06 10° ENE
USA 238 3.8 05:46:16 10° WSW 05:53:04 89° NNW 06:00:12 10° ENE
SJ 16-02 2.5 05:49:22 10° NNW 05:53:30 37° NE 05:57:37 10° ESE
deb Kosmos-1763 4.2 05:50:21 10° NNW 05:54:01 77° ENE 05:57:40 10° SE
Cosmos 1975 2.7 05:50:58 10° SSW 05:54:57 75° WNW 05:58:58 10° N
Cosmos 1777 Rocket 4.2 05:50:14 10° NW 05:55:23 56° WSW 06:00:30 10° S
IRS-1C Rocket 4.3 05:50:45 10° NNE 05:55:51 52° WNW 06:00:57 10° SW
SMAP 3.4 05:52:15 10° N 05:56:41 43° WNW 06:01:04 10° SW
CZ-4 R/B 4.5 05:52:31 10° NNE 05:56:43 89° W 06:00:52 10° SSW
Cosmos 1709 Rocket 4.0 05:50:54 10° NNW 05:57:05 90° ENE 06:03:12 10° S
Cosmos 1733 Rocket 4.4 05:54:02 10° W 05:57:05 18° NW 06:00:10 10° N
Cosmos 2297 Rocket 3.5 05:52:34 10° NW 05:57:11 25° N 06:01:48 10° ENE
MOS 1 Rocket 3.7 05:53:08 10° SSE 05:57:53 73° ENE 06:02:59 10° NNW
Cosmos 1437 Rocket 2.8 05:54:29 10° NNW 05:58:33 83° WSW 06:02:30 10° SSE
Cosmos 921 Rocket 3.7 05:54:42 10° S 05:58:49 58° ESE 06:02:58 10° NNE
Cosmos 1844 Rocket 2.9 05:54:10 10° WSW 05:59:35 49° NW 06:05:01 10° NE
CZ-4B R/B 4.0 05:56:33 10° N 06:01:24 32° NW 06:06:19 10° WSW
Cosmos 2227 Rocket 3.5 05:57:56 10° NW 06:02:34 25° N 06:07:10 10° ENE
Radarsat Rocket 4.4 05:56:59 10° NNE 06:02:48 48° NW 06:09:12 10° SW
ADEOS Rocket 4.0 05:58:11 10° SW 06:03:30 26° W 06:08:28 10° NNW
Cosmos 1992 Rocket 4.0 05:59:47 10° SW 06:05:00 78° WNW 06:10:16 10° NNE
Cosmos 1417 Rocket 4.5 05:59:28 10° SSW 06:05:40 74° WNW 06:11:50 10° N
Okean O Rocket 2.9 06:03:00 10° N 06:06:10 20° NW 06:09:20 10° W
Okean 1 Rocket 4.2 06:03:41 10° SSE 06:07:51 46° E 06:12:01 10° NNE
ALOS 3.7 06:05:45 10° N 06:08:42 17° NW 06:11:39 10° W
Cosmos 1544 3.2 06:05:30 10° S 06:09:07 82° ESE 06:12:44 10° NNE
Cosmos 1844 3.9 06:04:05 10° WSW 06:09:44 52° NW 06:15:22 10° NE
Cosmos 44 3.4 06:05:26 10° W 06:09:47 44° NNW 06:14:00 10° NE
Cosmos 1892 Rocket 4.4 06:06:49 10° N 06:11:13 51° ENE 06:15:36 10° SSE
Aureole 3 Rocket 3.4 06:06:50 10° SSW 06:12:49 75° WNW 06:17:05 10° N
